Regional Weather Roundup
Issued by NWS State College, PA

Home | Current Version | Previous Version | Graphics & Text | Print | Product List | Glossary On
Versions: 1 2 3 4 5 6 7 8 9 10 11 12 13 14 15 16 17 18 19 20 21 22 23 24 25 26 27 28 29 30 31 32 33 34 35 36 37 38 39 40 41 42 43 44 45 46 47 48 49 50
000
ASUS41 KCTP 282203
RWRCTP

REGIONAL WEATHER ROUNDUP
NATIONAL WEATHER SERVICE STATE COLLEGE PA
600 PM EDT FRI APR 28 2017

Note: "fair" indicates few or no clouds below 12,000 feet with no
significant weather and/or obstructions to visibility.

* = STATION THAT DOES NOT REPORT PRECIPITATION /E.G. RAIN...SNOW...ETC/
    THUNDER OR FOG.

PAZ002>004-007>009-013>016-020>023-029>032-282300-
WESTERN PENNSYLVANIA

CITY           SKY/WX    TMP DP  RH WIND       PRES   REMARKS
ERIE           CLOUDY    53  43  68 SE6       30.04S
MEADVILLE      LGT RAIN  60  50  69 VRB3      30.07R
FRANKLIN*      CLOUDY    63  43  48 CALM      30.09R
NEW CASTLE     MOCLDY    66  50  56 NE3       30.05R
BEAVER COUNTY  MOSUNNY   68  41  37 CALM      30.05R
BUTLER*        CLOUDY    66  46  48 CALM      30.06R
PITTSBURGH INT CLOUDY    72  43  35 NW5       30.04R
PITTSBURGH     CLOUDY    69  47  45 N5        30.02R
INDIANA*       MOSUNNY   68  43  40 CALM      30.07S
LATROBE        CLOUDY    70  48  46 N8        30.03S
WASHINGTON CO* MOSUNNY   72  46  40 NW7       30.04R
$$

PAZ004>006-010>012-017>019-024>028-033>037-041-042-045-046-049>053-282300-
CENTRAL PENNSYLVANIA

CITY           SKY/WX    TMP DP  RH WIND       PRES   REMARKS
BRADFORD       LGT RAIN  63  39  41 SW3       30.09R
DUBOIS         PTSUNNY   65  43  44 NW6       30.07R
CLEARFIELD     MOSUNNY   73  30  20 W6        30.04R
JOHNSTOWN      PTSUNNY   72  43  35 NW3       30.04F
ALTOONA        CLOUDY    78  50  37 S5        30.02S
STATE COLLEGE  SUNNY     73  46  38 S6        30.05R
WILLIAMSPORT   SUNNY     75  41  29 W8        30.00R
SELINSGROVE    SUNNY     78  47  33 CALM      30.01S
FT INDIANTOWN  SUNNY     80  43  26 S9        30.01R
CAPITAL CITY   SUNNY     80  46  30 SE6       30.00R
HARRISBURG     MOSUNNY   80  52  37 VRB3      29.99S
YORK           SUNNY     80  52  37 SW8       30.01S
$$

PAZ038>040-043-044-047-048-054-055-060>062-067>071-282300-
EASTERN PENNSYLVANIA

CITY           SKY/WX    TMP DP  RH WIND       PRES   REMARKS
SCRANTON       CLOUDY    77  41  27 SW10      30.00F
MOUNT POCONO   SUNNY     74  29  19 W13       30.04S
ALLENTOWN      SUNNY     79  47  32 SW10      30.00R
QUAKERTOWN*    CLEAR     79  43  27 SW9       30.02S
READING        SUNNY     81  47  30 SW9       30.00R
LANCASTER      SUNNY     79  50  36 W9        30.01R
COATESVILLE    CLEAR     81  48  32 CALM      30.04R
POTTSTOWN      SUNNY     80  45  28 VRB5      30.03R
BLUE BELL      SUNNY     79  54  41 CALM      30.02R
DOYLESTOWN     SUNNY     80  41  24 SW8       30.00S
WILLOW GROVE   NOT AVBL
NORTH PHILA    SUNNY     83  51  33 W8        30.01S
PHILADELPHIA   NOT AVBL
$$




USA.gov is the U.S. government's official web portal to all federal, state and local government web resources and services.